Regional Weather Roundup
Issued by NWS Green Bay, WI

Home | Current Version | Previous Version | Graphics & Text | Print | Product List | Glossary Off
Versions: 1 2 3 4 5 6 7 8 9 10 11 12 13 14 15 16 17 18 19 20 21 22 23 24 25 26 27 28 29 30 31 32 33 34 35 36 37 38 39 40 41 42 43 44 45 46 47 48 49 50

000
ASUS43 KGRB 200500
RWRGRB

NORTH-CENTRAL AND NORTHEAST WISCONSIN REGIONAL WEATHER ROUNDUP
NATIONAL WEATHER SERVICE GREEN BAY WI
1200 AM CDT SUN AUG 20 2017

WIZ005-009-010>012-018-019-200600-
NORTH CENTRAL WISCONSIN

CITY           SKY/WX    TMP DP  RH WIND       PRES   REMARKS
IRONWOOD       CLEAR     66  60  81 SW5       29.93R
MANITOWISH WTR NOT AVBL
ARBOR VITAE    NOT AVBL
EAGLE RIVER    NOT AVBL
LAND O LAKES   NOT AVBL
RHINELANDER    CLEAR     60  59  96 CALM      29.97S
PHILLIPS       NOT AVBL
ANTIGO         NOT AVBL
TOMAHAWK       NOT AVBL
MERRILL        NOT AVBL
$$

WIZ013-073-200600-
NORTHEAST WISCONSIN

CITY           SKY/WX    TMP DP  RH WIND       PRES   REMARKS
IRON MOUNTAIN  CLEAR     60  56  86 CALM      29.93R
MARINETTE      CLEAR     66  61  84 W3        29.94R
$$

WIZ017-030-035>037-045-200600-
CENTRAL WISCONSIN

CITY           SKY/WX    TMP DP  RH WIND       PRES   REMARKS
MEDFORD        NOT AVBL
WAUSAU         CLEAR     64  60  87 CALM      29.95S
MOSINEE        NOT AVBL
MARSHFIELD     CLEAR     61  58  90 S5        29.96S
WISC RAPIDS    CLEAR     58  58 100 CALM      29.98R
STEVENS POINT  NOT AVBL
WAUPACA        NOT AVBL
SHAWANO        NOT AVBL
CLINTONVILLE   NOT AVBL
WAUTOMA        CLEAR     59  58  96 CALM      29.98R
$$

WIZ038-039-048-051-200600-
FOX VALLEY

CITY           SKY/WX    TMP DP  RH WIND       PRES   REMARKS
NWS GREEN BAY  CLEAR     60  60 100 CALM      29.95R
APPLETON       NOT AVBL
OSHKOSH        CLEAR     66  60  81 SW3       29.96R
FOND DU LAC    CLEAR     64  60  87 S3        29.97R
$$

WIZ022-050-052-200600-
EAST CENTRAL WISCONSIN

CITY           SKY/WX    TMP DP  RH WIND       PRES   REMARKS
EPHRAIM        NOT AVBL
WASHINGTON ISL NOT AVBL
STURGEON BAY   CLEAR     67  61  81 SW6       29.95R
MANITOWOC      CLEAR     67  61  81 W3        29.97R
SHEBOYGAN      CLEAR     63  62  97 W6        29.97R
$$

LMZ563-521-522-541>543-200600-
LAKESHORE

STATION/POSITION TIME  TEMP    WIND        PRES    VSBY  WAVE
                       AIR SEA DIR/SP/G                  HT/PER
                 (UTC) (F)     (DEG/KT/KT) (MB)    (MI)  (FT/S)
SHEBOYGAN LKSHOR 0400   72     240/  8/  9 1014.1R
KEWAUNEE LKSHORE 0430   69     300/  3/  5 1013.2R
NORTHPORT PIER   0440   72     270/  4/ 10 1013.2R
N MID LAKE BUOY  0350   69 67  230/ 10/ 12 1012.9R         2/ 4
S GREEN BAY BUOY 0430   72 71  220/  6/  8 1013.6R
SISTER BAY LKSHO 0418   72     250/  9/ 10   N/A
MENOMINEE LKSHOR 0430   71     240/  9/ 11 1013.2R
$$



USA.gov is the U.S. government's official web portal to all federal, state and local government web resources and services.